Preview of NWS' New Version of Forecast
This preview is not operational and should not be used for support decisions.

Regional Weather Roundup (RWR)

Issued by National Weather Service (NWS)

                            
000
ASPQ40 PGUM 260210
RWRPQ 
WEATHER ROUNDUP FOR THE MARIANAS AND MICRONESIA
NATIONAL WEATHER SERVICE TIYAN GU
1200 PM CHST WED JUN 26 2019

GUZ001>004-260300-
MARIANA ISLANDS-
  
CITY           SKY/WX    TMP DP  RH WIND       PRES   REMARKS
GUAM AIRPORT   MOSUNNY   88  73  62 E14       29.88F HX  96           
ANDERSEN AFB   PTSUNNY   88  73  62 E14       29.89F HX  96           
ROTA AIRPORT   MOSUNNY   86  72  62 E17       29.88F HX  92           
TINIAN AP      MOSUNNY   90  73  58 E12       29.87F HX  98           
SAIPAN AP      MOSUNNY   90  75  62 E14G20    29.88F HX 100           

$$

PMZ161-260300-
REPUBLIC OF PALAU-
  
CITY           SKY/WX    TMP DP  RH WIND       PRES   REMARKS
KOROR AP       LGT RAIN  77  75  94 NE3       29.83S                  
KOROR WSO      NOT AVBL                                               

$$

PMZ171>174-260300-
FEDERATED STATES OF MICRONESIA-
  
CITY           SKY/WX    TMP DP  RH WIND       PRES   REMARKS
YAP AIRPORT    CLOUDY    88  79  74 E12       29.80F HX 102           
CHUUK AP       CLOUDY    88  79  74 VRB6      29.82S HX 102           
POHNPEI AP     CLOUDY    88  77  70 N5        29.81F HX 100           
POHNPEI WSO    CLOUDY    90  77  66 NW3       29.83F HX 102           
KOSRAE AP      CLOUDY    86  77  74 VRB3      29.82F HX  97           

$$

PMZ181-260300-
REPUBLIC OF THE MARSHALL ISLANDS-
  
CITY           SKY/WX    TMP DP  RH WIND       PRES   REMARKS
KWAJALEIN AP   HVY RAIN  88  77  70 SE17G25   29.84F HX 100           
MAJURO AP      PTSUNNY   88  77  70 NE17      29.83F HX 100           
MAJURO WSO     PTSUNNY   86  77  74 E10       29.82F HX  97           

$$